Weather reports worldwide

Advertisment
Cannes, France (7684): temperature & dewpoint: 13.01.2021 06:00:00 - 19.01.2021 06:00:00 (CET)Cannes, France (7684): temperature 5cm: 13.01.2021 06:00:00 - 19.01.2021 06:00:00 (CET)Cannes, France (7684): wind speed & gusts: 13.01.2021 06:00:00 - 19.01.2021 06:00:00 (CET)Cannes, France (7684): wind direction: 13.01.2021 06:00:00 - 19.01.2021 06:00:00 (CET)Cannes, France (7684): reduced air pressure: 13.01.2021 06:00:00 - 19.01.2021 06:00:00 (CET)Cannes, France (7684): visibility: 13.01.2021 06:00:00 - 19.01.2021 06:00:00 (CET)Cannes, France (7684): precipitation: 13.01.2021 06:00:00 - 19.01.2021 06:00:00 (CET)
Date & Time tt [°C] td [°C] tt 5cm [°C] ff [km/h] ff [kn] fx [km/h] fx [kn] dd ppp [hPa] vv [km] rr [mm]
19.01.2021 06:00:00 1,9 -0,7 0,3 9 5 17 9 N 1024,9 38 0,0
19.01.2021 05:00:00 1,9 -0,2 0,0 8 4 13 7 N 1024,9 34 0,0
19.01.2021 04:00:00 1,9 0,3 0,6 10 5 19 10 N 1025,0 28 0,0
19.01.2021 03:00:00 2,3 0,5 1,0 9 5 16 9 N 1025,3 24 0,0
19.01.2021 02:00:00 2,6 1,0 0,9 9 5 14 8 N 1025,2 23 0,0
19.01.2021 01:00:00 2,6 1,1 1,3 8 5 14 8 N 1025,4 20 0,0
19.01.2021 00:00:00 3,0 1,5 1,3 8 4 14 8 N 1025,6 21 0,0
18.01.2021 23:00:00 3,4 2,1 2,0 9 5 15 8 N 1025,4 19 0,0
18.01.2021 22:00:00 4,2 2,5 2,4 8 5 16 9 N 1025,3 20 0,0
18.01.2021 21:00:00 4,3 3,0 2,6 8 4 13 7 N 1025,1 17 0,0
18.01.2021 20:00:00 4,9 3,4 3,1 7 4 11 6 N 1024,8 16 0,0
18.01.2021 19:00:00 6,1 3,9 4,0 6 3 10 6 N 1024,6 15 0,0
18.01.2021 18:00:00 7,9 4,3 5,1 5 3 10 6 N 1024,0 17 0,0
18.01.2021 17:00:00 11,8 3,8 9,6 4 2 13 7 SSE 1023,4 60 0,0
18.01.2021 16:00:00 12,8 3,4 13,1 7 4 21 11 ESE 1023,1 60 0,0
18.01.2021 15:00:00 13,6 4,5 15,1 10 5 21 11 E 1022,9 60 0,0
18.01.2021 14:00:00 13,8 4,4 12,7 7 4 16 8 ENE 1022,8 59 0,0
18.01.2021 13:00:00 13,6 2,8 19,0 10 5 18 10 SE 1023,0 35 0,0
18.01.2021 12:00:00 12,5 3,7 14,1 2 1 11 6 WNW 1023,5 20 0,0
18.01.2021 11:00:00 7,7 0,6 7,6 6 4 14 8 N 1023,6 17 0,0
18.01.2021 10:00:00 4,0 -0,8 1,2 9 5 16 9 N 1023,2 43 0,0
18.01.2021 09:00:00 1,4 -1,8 -1,4 10 6 17 9 N 1022,6 35 0,0
18.01.2021 08:00:00 0,2 -2,3 -1,3 8 5 17 9 N 1022,0 47 0,0
18.01.2021 07:00:00 0,4 -2,2 -1,1 8 4 15 8 N 1021,7 42 0,0
18.01.2021 06:00:00 1,1 -2,1 -1,2 4 2 14 7 NNE 1021,4 48 0,0
18.01.2021 05:00:00 1,0 -1,6 -1,0 8 4 15 8 N 1021,4 41 0,0
18.01.2021 04:00:00 1,0 -1,4 -0,9 6 3 14 8 N 1021,4 42 0,0
18.01.2021 03:00:00 0,9 -1,0 -0,6 7 4 13 7 N 1021,0 36 0,0
18.01.2021 02:00:00 1,6 -0,5 -0,5 5 3 16 8 N 1020,3 30 0,0
18.01.2021 01:00:00 2,4 0,0 0,4 7 4 16 8 NE 1019,8 36 0,0
18.01.2021 00:00:00 2,6 1,1 0,7 9 5 18 10 N 1019,2 25 0,0
17.01.2021 23:00:00 2,8 1,6 1,3 8 4 15 8 N 1018,7 17 0,0
17.01.2021 22:00:00 3,1 1,9 1,7 9 5 15 8 N 1018,0 13 0,0
17.01.2021 21:00:00 3,8 2,8 1,6 5 3 12 7 N 1017,4 16 0,0
17.01.2021 20:00:00 4,5 3,2 2,8 6 3 12 7 N 1016,5 15 0,0
17.01.2021 19:00:00 5,4 3,9 3,0 4 2 14 8 N 1015,4 14 0,0
17.01.2021 18:00:00 7,3 4,4 4,9 6 4 10 6 N 1014,5 19 0,0
17.01.2021 17:00:00 10,8 4,7 8,2 4 2 12 7 ENE 1013,2 60 0,0
17.01.2021 16:00:00 11,5 5,1 13,2 8 5 15 8 SE 1012,7 58 0,0
17.01.2021 15:00:00 11,8 5,9 15,7 8 5 19 11 SE 1012,5 56 0,0
17.01.2021 14:00:00 12,1 5,5 11,8 6 4 14 8 SSE 1012,5 42 0,0
17.01.2021 13:00:00 12,2 5,6 18,2 6 4 13 7 SSE 1013,4 60 0,0
17.01.2021 12:00:00 12,4 4,6 15,0 0 0 13 7 N 1014,2 32 0,0
17.01.2021 11:00:00 8,6 3,2 8,6 6 4 16 8 NNE 1014,4 42 0,0
17.01.2021 10:00:00 5,1 1,6 1,8 8 4 16 8 N 1014,1 20 0,0
17.01.2021 09:00:00 1,6 0,0 -0,9 9 5 14 8 N 1013,9 25 0,0
17.01.2021 08:00:00 0,2 -0,9 -0,9 7 4 12 6 N 1013,3 26 0,0
17.01.2021 07:00:00 0,6 -0,7 -0,5 9 5 21 11 N 1012,7 26 0,0
17.01.2021 06:00:00 0,9 -0,7 -0,2 9 5 18 10 NNE 1012,4 30 0,0
17.01.2021 05:00:00 1,4 -0,7 -0,2 7 4 13 7 N 1013,6 29 0,0
17.01.2021 04:00:00 1,6 -0,3 -0,1 6 3 12 7 N 1014,4 28 0,0
17.01.2021 03:00:00 2,0 -0,3 -0,2 7 4 12 7 N 1015,3 28 0,0
17.01.2021 02:00:00 2,2 0,1 0,5 5 3 12 6 N 1016,2 29 0,0
17.01.2021 01:00:00 3,1 1,0 1,2 9 5 15 8 N 1017,4 26 0,0
17.01.2021 00:00:00 3,7 1,2 2,3 5 3 13 7 N 1018,1 30 0,0
16.01.2021 23:00:00 4,1 1,3 2,6 6 3 11 6 NNW 1018,6 31 0,0
16.01.2021 22:00:00 4,5 2,4 2,6 7 4 11 6 N 1019,1 20 0,0
16.01.2021 21:00:00 5,4 2,4 2,7 3 2 6 3 N 1019,6 28 0,0
16.01.2021 20:00:00 7,0 2,3 4,0 2 1 25 13 NNW 1020,2 42 0,0
16.01.2021 19:00:00 8,2 2,0 6,4 13 7 26 14 WSW 1020,3 58 0,0
16.01.2021 18:00:00 8,5 2,7 6,9 13 7 21 12 W 1020,6 55 0,0
16.01.2021 17:00:00 9,2 3,2 7,6 6 3 17 9 W 1020,6 58 0,0
16.01.2021 16:00:00 9,9 4,3 9,8 2 1 6 4 SW 1020,7 60 0,0
16.01.2021 15:00:00 10,3 3,6 10,3 3 2 10 5 N 1020,8 60 0,0
16.01.2021 14:00:00 10,0 4,1 10,3 3 2 11 6 NNW 1020,9 52 0,0
16.01.2021 13:00:00 8,9 4,9 8,1 6 3 11 6 N 1021,4 42 0,0
16.01.2021 12:00:00 7,8 4,2 7,8 4 2 9 5 N 1022,1 35 0,0
16.01.2021 11:00:00 7,5 3,5 7,0 3 1 9 5 NNW 1022,2 42 0,0
16.01.2021 10:00:00 6,7 3,1 5,6 5 3 13 7 N 1021,6 57 0,0
16.01.2021 09:00:00 6,0 3,5 5,2 7 4 12 6 N 1021,0 57 0,0
16.01.2021 08:00:00 5,9 3,2 5,0 3 2 11 6 N 1020,6 60 0,0
16.01.2021 07:00:00 5,8 2,8 4,9 5 3 11 6 NNE 1020,2 60 0,0
16.01.2021 06:00:00 5,8 3,3 5,1 6 4 15 8 N 1019,7 60 0,0
16.01.2021 05:00:00 6,2 4,5 5,7 6 3 12 7 N 1019,3 58 0,0
16.01.2021 04:00:00 6,6 5,1 6,2 6 3 11 6 N 1019,1 50 0,0
16.01.2021 03:00:00 7,0 5,6 6,6 5 3 15 8 N 1018,8 54 0,0
16.01.2021 02:00:00 7,5 6,9 6,2 6 3 13 7 N 1018,0 18 0,0
16.01.2021 01:00:00 8,0 7,1 7,1 3 1 10 5 NNW 1017,6 19 0,0
16.01.2021 00:00:00 8,1 7,3 7,2 4 2 10 5 N 1017,3 17 0,0
15.01.2021 23:00:00 8,3 7,5 7,9 5 3 9 5 NNW 1016,7 14 0,0
15.01.2021 22:00:00 8,5 7,7 7,5 5 3 15 8 N 1016,2 11 0,0
15.01.2021 21:00:00 8,9 7,8 8,3 9 5 16 9 N 1015,5 16 0,2
15.01.2021 20:00:00 9,2 7,8 8,6 7 4 23 13 N 1015,1 12 0,2
15.01.2021 19:00:00 9,6 8,0 8,9 10 5 20 11 N 1014,5 16 0,0
15.01.2021 18:00:00 11,3 6,8 9,9 13 7 26 14 S 1013,8 43 0,0
15.01.2021 17:00:00 11,2 6,9 10,6 15 8 26 14 S 1013,7 37 0,0
15.01.2021 16:00:00 11,6 6,5 11,4 14 7 25 14 S 1013,5 45 0,0
15.01.2021 15:00:00 11,9 6,4 12,2 17 9 27 15 S 1013,2 51 0,0
15.01.2021 14:00:00 12,2 6,5 12,2 15 8 27 15 S 1013,3 57 0,0
15.01.2021 13:00:00 13,3 7,1 13,4 22 12 31 17 S 1013,9 19 0,0
15.01.2021 12:00:00 12,6 7,9 14,1 17 9 24 13 S 1014,5 37 0,0
15.01.2021 11:00:00 10,6 7,8 9,5 7 4 13 7 NNE 1014,2 20 0,0
15.01.2021 10:00:00 7,6 6,2 5,0 9 5 16 9 NNE 1013,6 20 0,0
15.01.2021 09:00:00 6,1 5,2 4,6 5 3 13 7 N 1012,5 19 0,0
15.01.2021 08:00:00 5,9 5,3 5,0 7 4 13 7 N 1011,9 17 0,0
15.01.2021 07:00:00 6,4 5,7 5,2 7 4 11 6 N 1011,6 16 0,0
15.01.2021 06:00:00 7,2 6,5 6,1 6 4 11 6 NNE 1011,3 19 0,0
15.01.2021 05:00:00 7,7 6,8 6,6 3 2 10 6 NNW 1011,7 19 0,0
15.01.2021 04:00:00 7,4 6,5 6,0 5 3 13 7 NW 1012,0 17 0,4
15.01.2021 03:00:00 6,5 5,6 5,5 0 0 14 8 N 1011,6 14 0,0
15.01.2021 02:00:00 6,0 5,3 4,6 6 4 13 7 NNE 1011,4 16 0,0
15.01.2021 01:00:00 5,4 4,7 4,0 4 2 13 7 N 1011,5 14 0,0
15.01.2021 00:00:00 5,3 4,6 3,9 7 4 16 8 NNE 1011,5 11 0,0
14.01.2021 23:00:00 5,3 4,6 3,8 6 4 16 8 N 1010,9 9 0,0
14.01.2021 22:00:00 6,0 5,3 4,1 6 3 11 6 N 1010,8 9 0,0
14.01.2021 21:00:00 7,3 6,4 4,5 7 4 13 7 N 1010,4 9 0,0
14.01.2021 20:00:00 8,5 7,1 5,6 3 1 10 5 N 1010,2 10 0,0
14.01.2021 19:00:00 9,9 7,7 7,1 3 1 5 3 NNW 1009,8 17 0,0
14.01.2021 18:00:00 11,3 8,2 9,1 3 2 9 5 ENE 1009,1 32 0,0
14.01.2021 17:00:00 12,2 8,5 11,7 4 2 16 8 E 1008,7 20 0,0
14.01.2021 16:00:00 12,8 9,1 13,2 8 5 19 10 SE 1008,5 60 0,0
14.01.2021 15:00:00 14,4 9,6 18,1 8 4 16 9 SE 1007,9 17 0,0
14.01.2021 14:00:00 14,2 9,4 13,8 6 4 19 11 SSE 1007,9 20 0,0
14.01.2021 13:00:00 13,6 8,6 19,8 8 5 14 7 S 1008,6 60 0,0
14.01.2021 12:00:00 13,9 8,7 15,6 3 2 10 6 S 1009,4 34 0,0
14.01.2021 11:00:00 10,5 7,0 8,6 4 2 13 7 NNE 1010,1 12 0,0
14.01.2021 10:00:00 6,6 4,6 3,0 7 4 14 8 N 1010,5 20 0,0
14.01.2021 09:00:00 3,4 2,4 1,2 8 5 14 8 N 1011,2 18 0,0
14.01.2021 08:00:00 2,4 1,7 1,3 6 4 18 10 N 1011,4 20 0,0
14.01.2021 07:00:00 2,8 2,4 0,9 7 4 17 9 NNE 1010,7 20 0,0
14.01.2021 06:00:00 2,6 2,0 1,4 9 5 19 11 N 1010,8 19 0,0
14.01.2021 05:00:00 2,8 2,2 1,9 11 6 24 13 N 1011,3 19 0,0
14.01.2021 04:00:00 3,3 3,0 1,4 9 5 16 9 N 1012,1 19 0,0
14.01.2021 03:00:00 2,6 2,0 1,3 8 4 16 9 N 1013,2 14 0,0
14.01.2021 02:00:00 2,9 2,3 1,9 8 4 15 8 N 1013,7 11 0,0
14.01.2021 01:00:00 3,1 2,5 1,8 7 4 15 8 N 1014,0 9 0,0
14.01.2021 00:00:00 3,5 2,9 2,1 6 3 17 9 N 1014,4 9 0,0
13.01.2021 23:00:00 3,5 2,9 2,3 7 4 13 7 N 1014,5 7 0,0
13.01.2021 22:00:00 4,2 3,5 3,1 8 4 14 8 N 1014,7 7 0,0
13.01.2021 21:00:00 4,7 4,0 3,3 6 3 13 7 NNW 1015,0 8 0,0
13.01.2021 20:00:00 5,4 4,5 3,6 6 4 15 8 N 1015,6 10 0,0
13.01.2021 19:00:00 6,4 5,2 4,5 8 4 11 6 N 1015,7 11 0,0
13.01.2021 18:00:00 8,5 6,1 4,3 4 2 7 4 N 1015,3 18 0,0
13.01.2021 17:00:00 10,5 6,4 7,7 4 2 11 6 SW 1015,0 59 0,0
13.01.2021 16:00:00 12,5 7,4 14,3 8 4 14 8 SSE 1015,0 56 0,0
13.01.2021 15:00:00 12,8 6,8 16,7 7 4 14 8 SSE 1014,6 60 0,0
13.01.2021 14:00:00 13,2 5,8 12,4 6 4 12 7 SSW 1014,2 20 0,0
13.01.2021 13:00:00 12,7 5,6 18,4 7 4 14 8 S 1015,2 17 0,0
13.01.2021 12:00:00 12,7 5,4 14,4 3 2 8 4 S 1016,0 10 0,0
13.01.2021 11:00:00 8,8 3,8 7,5 6 3 11 6 N 1015,9 16 0,0
13.01.2021 10:00:00 5,4 2,2 1,9 6 3 18 10 N 1016,0 21 0,0
13.01.2021 09:00:00 2,0 0,1 -0,4 8 5 16 8 N 1015,6 26 0,0
13.01.2021 08:00:00 0,5 -0,6 -0,5 9 5 17 9 N 1014,6 27 0,0
13.01.2021 07:00:00 0,7 -0,5 -0,6 11 6 16 9 N 1014,4 30 0,0
13.01.2021 06:00:00 0,3 -1,0 -0,6 7 4 15 8 N 1014,0 29 0,0

tt = temperature
td = dewpoint
tt 5cm = temperature 5cm
ff = wind speed
fx = gusts
dd = wind direction
ppp = reduced air pressure
vv = visibility
rr = precipitation

Next stations